Miscellaneous Local Product
Issued by NWS North Platte, NE

Home | Current Version | Previous Version | Text Only | Print | Product List | Glossary On
Versions: 1 2 3 4 5 6 7 8 9 10 11 12 13 14 15 16 17 18 19 20 21 22 23 24 25 26 27 28 29 30 31 32 33 34 35 36 37 38 39 40 41 42 43 44 45 46 47 48 49 50
000
AXUS43 KLBF 290810
MISLBF


WESTERN AND NORTH CENTRAL NEBRASKA HOURLY WEATHER ROUNDUP
NATIONAL WEATHER SERVICE NORTH PLATTE NE
200 AM CST THU JAN 29 2015

***STATIONS NOT REPORTING VARIABLES SUCH AS SKY/WEATHER OR
PRESSURE ARE PROVIDED BY THE NEBRASKA DEPARTMENT OF
ROADS...RAWS...AND APRS NETWORKS...AND ARE NOT UNDER
NATIONAL WEATHER SERVICE QUALITY CONTROL***

...OBSERVATIONS IN AND NEAR THE EASTERN PANHANDLE OF NEBRASKA...

CITY           SKY/WX    TMP DP  RH WIND       PRES   REMARKS
PINE RIDGE     CLEAR     31  23  72 N10G21    30.34R WCI  22
CHADRON        MOCLDY    27  25  92 NW3       30.38R
ALLIANCE       CLEAR     28  25  88 NW8       30.34R WCI  20
SIDNEY         PTCLDY    31  26  82 N7        30.33R WCI  24
WHITECLAY        N/A     29  23  79 NW12        N/A  WCI  19
CRESCENT LAKE    N/A     27  24  89 NW10        N/A  WCI  17
LISCO            N/A     32  26  77 W7          N/A  WCI  26
LEWELLEN         N/A     33  27  79 NW12        N/A  WCI  24
$$

...OBSERVATIONS IN NORTH CENTRAL NEBRASKA...

CITY           SKY/WX    TMP DP  RH WIND       PRES   REMARKS
VALENTINE      CLOUDY    35  26  69 NW14      30.29R WCI  26
THEDFORD       CLOUDY    36  28  72 N21G31    30.28R WCI  24
AINSWORTH      CLOUDY    35  27  73 NW24G33   30.26R WCI  22
O`NEILL        CLOUDY    36  31  82 NW24G35   30.21R WCI  24
ORD            CLOUDY    36  29  75 N25G33    30.21R WCI  24
BROKEN BOW     CLOUDY    38  28  67 N29G39    30.22R WCI  26
BROWNLEE         N/A     36  28  75 N24         N/A  WCI  24
SPRINGVIEW       N/A     36  28  73 W17G30      N/A  WCI  26
BREWSTER         N/A     37  28  68 W30         N/A  WCI  24
ROSE             N/A     37  34  90 SW16        N/A  WCI  27
NEWPORT          N/A     37  30  78 NW25        N/A  WCI  25
SARGENT          N/A     36  30  78 NW7G18      N/A  WCI  30
COMSTOCK         N/A     39  31  75 W17         N/A  WCI  30
EWING            N/A     35  30  83 NW13G21     N/A  WCI  26
$$

...OBSERVATIONS IN SOUTHWEST NEBRASKA AND FAR NORTHEAST COLORADO...

CITY           SKY/WX    TMP DP  RH WIND       PRES   REMARKS
WRAY           FAIR      36  31  83 N14       30.29F WCI  27
HOLYOKE        FAIR      37  32  81 NW9       30.31R WCI  31
IMPERIAL       CLEAR     33  27  78 N13       30.29R WCI  24
OGALLALA       CLEAR     30  27  88 NW6       30.30R WCI  24
NORTH PLATTE   PTCLDY    35  27  72 N18       30.27R WCI  24
MCCOOK         CLEAR     37  30  75 N16G23    30.27R WCI  28
LEXINGTON      CLOUDY    38  31  76 N26G38    30.24R WCI  26
BRADY            N/A     35  26  70 W5G15       N/A  WCI  31
GOTHENBURG       N/A     36  26  66 NW20        N/A  WCI  25
CALLAWAY         N/A     35  29  78 N18         N/A  WCI  24
$$

...NORTH PLATTE AREA...

CITY           SKY/WX    TMP DP  RH WIND       PRES   REMARKS
AIRPORT        PTCLDY    35  27  72 N18       30.27R WCI  24
DOWNTOWN         N/A     35  27  73 N12G23      N/A  WCI  27
$$

...SOME WEATHER OBSERVATIONS FROM AROUND THE REGION...

CITY           SKY/WX    TMP DP  RH WIND       PRES   REMARKS
DENVER         MOCLDY    38  31  76 W9        30.37R WCI  31
LARAMIE        FLURRIES  28  27  96 W3        30.35R
CHEYENNE       CLOUDY    35  25  66 N13       30.33S WCI  26
SCOTTSBLUFF    MOCLDY    36  26  67 NW13      30.35R WCI  27
RAPID CITY     MOCLDY    32  25  75 N25G31    30.33S WCI  19
PIERRE         CLOUDY    36  27  69 NW21G30   30.27R WCI  25
WINNER         CLOUDY    37  29  72 NW21G29   30.25R WCI  26
SIOUX FALLS    CLOUDY    32  29  88 NW23G35   30.08R WCI  19
OMAHA          CLOUDY    38  29  70 NW26G47   30.02R WCI  26
GRAND ISLAND   CLOUDY    37  29  72 NW30G40   30.19R WCI  24
KANSAS CITY    MOCLDY    46  37  71 NW15G26   29.94R
WICHITA        PTCLDY    51  30  44 NW16      30.08R
HAYS           CLEAR     46  30  53 NW21G29   30.19R
LIBERAL        PTCLDY    41  30  65 NW9         N/A
GOODLAND       CLEAR     37  31  78 N17       30.28R WCI  27
$$



USA.gov is the U.S. government's official web portal to all federal, state and local government web resources and services.